Simultaneous Nadir Overpasses (SNOs) Predictions

Prediction of SNOs between GOES-16 and AQUA Satellite Orbit:

Table of predicted SNOs for the next 14.0 days since TLE Epoch: 11/4/2022
Index Date Time (GOES-16) GOES-16 Lat,Lon AQUA Lat,Lon Distance(km) Time Diff (sec)
1 11/05/2022 18:41:45 -0.02, -75.19 0.10, -74.68 58.53 80
2 11/07/2022 18:28:50 -0.02, -75.21 0.76, -71.53 417.75 80
3 11/08/2022 06:47:14 0.02, -75.21 0.33, -76.64 162.69 80
4 11/10/2022 06:34:18 0.02, -75.23 -0.32, -73.49 197.32 80
5 11/10/2022 18:55:30 -0.02, -75.23 -0.76, -78.63 386.74 80
6 11/12/2022 18:42:34 -0.02, -75.26 -0.07, -75.48 25.96 80
7 11/14/2022 18:32:18 -0.01, -75.28 0.61, -72.33 335.58 80
8 11/15/2022 06:53:21 0.01, -75.29 0.45, -77.44 243.97 80
9 11/17/2022 06:37:43 0.01, -75.33 -0.20, -74.28 118.74 80
10 11/17/2022 18:58:55 -0.01, -75.34 -0.90, -79.42 464.66 80
